This is the latest recevied weather packets stored in our database for station/object KJ5IIV. If no packets are shown the sender has not sent any weather packets the latest 10 day(s).
| Time | Temp. | Humidity | Pressure | Rain* | Wind** | Luminosity | Snow |
|---|---|---|---|---|---|---|---|
| 1778090517 | 15° C | 88% | 1012.9 hPa | 0 mm | - | 169 W/m² | - |
| 1778090214 | 15° C | 88% | 1013.1 hPa | 0 mm | - | 132 W/m² | - |
| 1778089910 | 15° C | 88% | 1013.8 hPa | 0 mm | - | 136 W/m² | - |
| 1778089603 | 14.44° C | 88% | 1013.9 hPa | 0 mm | - | 106 W/m² | - |
| 1778089300 | 14.44° C | 88% | 1014 hPa | 0 mm | - | 84 W/m² | - |
| 1778088997 | 14.44° C | 87% | 1013.7 hPa | 0 mm | - | 75 W/m² | - |
| 1778088694 | 14.44° C | 88% | 1011.6 hPa | 0 mm | - | 345 W/m² | - |
| 1778088391 | 14.44° C | 88% | 1013.3 hPa | 0 mm | - | 174 W/m² | - |
| 1778088087 | 14.44° C | 88% | 1013.6 hPa | 0 mm | - | 195 W/m² | - |
| 1778087785 | 14.44° C | 89% | 1013.6 hPa | 0 mm | - | 100 W/m² | - |
| 1778087482 | 14.44° C | 88% | 1014.3 hPa | 0 mm | - | 173 W/m² | - |
| 1778087180 | 14.44° C | 88% | 1014.5 hPa | 0 mm | - | 124 W/m² | - |
| 1778086877 | 14.44° C | 89% | 1014.3 hPa | 0 mm | - | 150 W/m² | - |
| 1778086575 | 14.44° C | 89% | 1014.8 hPa | 0 mm | - | 114 W/m² | - |
| 1778086271 | 14.44° C | 89% | 1014.6 hPa | 0 mm | - | 101 W/m² | - |
| 1778085968 | 13.89° C | 89% | 1014.7 hPa | 0 mm | - | 152 W/m² | - |
| 1778085666 | 13.89° C | 89% | 1014.6 hPa | 0 mm | - | 153 W/m² | - |
| 1778085361 | 13.89° C | 90% | 1014.6 hPa | 0 mm | - | 175 W/m² | - |
| 1778085057 | 13.89° C | 91% | 1014.8 hPa | 0 mm | - | 117 W/m² | - |
| 1778084754 | 13.89° C | 91% | 1014.7 hPa | 0 mm | - | 150 W/m² | - |
| 1778084451 | 13.89° C | 92% | 1014.8 hPa | 0 mm | - | 81 W/m² | - |
| 1778084149 | 13.33° C | 91% | 1014.9 hPa | 0 mm | - | 54 W/m² | - |
| 1778083845 | 13.33° C | 91% | 1014.8 hPa | 0 mm | - | 40 W/m² | - |
| 1778083543 | 13.33° C | 90% | 1014.3 hPa | 0 mm | - | 51 W/m² | - |
| 1778083240 | 13.33° C | 90% | 1014.2 hPa | 0 mm | - | 69 W/m² | - |
* Rain latest hour (hover to see other rain measurements)
** Current wind speed in m/s (hover to see current wind gust speed)